Location: Centerville
(32.8776°N, 96.6203°W)
Time: 15:41:12
(UTC+00:00)

Cosmos 968 Rocket - Pass Details

Date: 17 June 2021
Orbit: 741 x 770 km, 74.0° (Epoch: 27 July)

Event Time Altitude Azimuth Distance (km) Brightness Sun altitude
Rises 05:07:25 0° 347° (NNW) 3,183 7.8 -30.6°
Reaches altitude 10° 05:09:49 10° 351° (N) 2,258 6.8 -30.8°
Enters shadow 05:13:30 44° 17° (NNE) 1,022 4.3 -31.0°
